OE-11361 Weather Reports


Display with metric or nautical units.
time (UTC)temp
F
wind
direction
speed
MPH
gust
MPH
rain 1hr
in
rain 24hr
in
rain mn
in
humidity
%
barometer
mb
20260903081117 66 311 1.0 3.0 0.00 0.00 0.00 70 1022.0
20260903080504 66 87 1.0 2.0 0.00 0.00 0.00 71 1022.1
20260903075504 65 331 1.0 3.0 0.00 0.00 0.00 75 1022.1
20260903074117 64 52 1.0 2.0 0.00 0.00 0.00 77 1022.2
20260903073503 64 109 1.0 3.0 0.00 0.00 0.00 78 1022.3
20260903072503 62 84 0.0 2.0 0.00 0.00 0.00 83 1022.4
20260903071117 62 19 1.0 2.0 0.00 0.00 0.00 84 1022.5
20260903070504 61 174 1.0 2.0 0.00 0.00 0.00 84 1022.6
20260903065504 61 116 1.0 2.0 0.00 0.00 0.00 84 1022.6
20260903064116 61 89 1.0 2.0 0.00 0.00 0.00 85 1022.7
20260903063503 60 317 1.0 2.0 0.00 0.00 0.00 86 1022.7
20260903062504 60 273 0.0 2.0 0.00 0.00 0.00 86 1022.6
20260903061117 60 360 0.0 1.0 0.00 0.00 0.00 86 1022.7
20260903060504 60 151 0.0 2.0 0.00 0.00 0.00 86 1022.7
20260903055503 59 144 1.0 2.0 0.00 0.00 0.00 87 1022.7
20260903054116 59 63 1.0 2.0 0.00 0.00 0.00 87 1022.6
20260903053504 59 360 0.0 2.0 0.00 0.00 0.00 88 1022.6
20260903052504 59 360 0.0 2.0 0.00 0.00 0.00 89 1022.6
20260903051117 59 77 1.0 2.0 0.00 0.00 0.00 87 1022.6
20260903050503 58 33 1.0 3.0 0.00 0.00 0.00 88 1022.6
20260903045504 58 360 0.0 4.0 0.00 0.00 0.00 89 1022.6
20260903044116 58 134 1.0 5.0 0.00 0.00 0.00 88 1022.4
20260903043503 58 145 1.0 3.0 0.00 0.00 0.00 89 1022.5
20260903042504 58 102 1.0 2.0 0.00 0.00 0.00 88 1022.3
20260903041116 58 145 1.0 3.0 0.00 0.00 0.00 87 1022.3
20260903040504 58 142 1.0 3.0 0.00 0.00 0.00 87 1022.3
20260903035504 58 104 1.0 3.0 0.00 0.00 0.00 87 1022.4
20260903034503 58 41 0.0 2.0 0.00 0.00 0.00 87 1022.3
20260903033503 58 269 0.0 1.0 0.00 0.00 0.00 88 1022.3
20260903032504 58 104 2.0 3.0 0.00 0.00 0.00 87 1022.2
20260903031117 58 188 0.0 2.0 0.00 0.00 0.00 87 1022.2
20260903030504 59 23 1.0 2.0 0.00 0.00 0.00 85 1021.9
20260903025504 59 360 0.0 2.0 0.00 0.00 0.00 87 1021.9
20260903024504 59 146 1.0 3.0 0.00 0.00 0.00 85 1021.8
20260903023504 59 141 1.0 3.0 0.00 0.00 0.00 84 1021.8
20260903022504 60 97 0.0 4.0 0.00 0.00 0.00 83 1021.6
20260903021116 59 305 3.0 6.0 0.00 0.00 0.00 84 1021.5
20260903020504 59 113 2.0 5.0 0.00 0.00 0.00 84 1021.5
20260903015504 60 92 3.0 5.0 0.00 0.00 0.00 83 1021.5
20260903014116 59 148 1.0 4.0 0.00 0.00 0.00 85 1021.8
20260903013503 59 336 1.0 3.0 0.00 0.00 0.00 86 1021.8
20260903012503 59 92 1.0 4.0 0.00 0.00 0.00 84 1021.6
20260903011117 59 309 2.0 4.0 0.00 0.00 0.00 84 1021.6
20260903010504 59 121 0.0 2.0 0.00 0.00 0.00 85 1021.7
20260903005504 59 298 2.0 4.0 0.00 0.00 0.00 84 1021.8
20260903004117 59 274 1.0 3.0 0.00 0.00 0.00 85 1021.7
20260903003504 59 166 1.0 6.0 0.00 0.00 0.00 83 1021.7
20260903002504 60 110 2.0 6.0 0.00 0.00 0.00 82 1021.8
20260903001516 58 104 1.0 2.0 0.00 0.00 0.00 85 1022.0
20260903000503 58 9 1.0 2.0 0.00 0.00 0.00 86 1022.0
20260902235503 58 324 2.0 3.0 0.00 0.00 0.00 86 1022.3
20260902234117 58 360 0.0 2.0 0.00 0.00 0.00 86 1022.3
20260902233503 58 110 0.0 1.0 0.00 0.00 0.00 86 1022.2
20260902232503 58 121 1.0 2.0 0.00 0.00 0.00 86 1022.2
20260902231504 59 47 1.0 2.0 0.00 0.00 0.00 85 1022.2
20260902230503 59 154 1.0 4.0 0.00 0.00 0.00 84 1022.1
20260902225504 59 120 1.0 4.0 0.00 0.00 0.00 84 1021.6
20260902224117 60 145 2.0 6.0 0.00 0.00 0.00 83 1021.6
20260902223504 59 107 1.0 2.0 0.00 0.00 0.00 85 1021.5
20260902222504 59 34 1.0 3.0 0.00 0.00 0.00 84 1021.5
20260902221117 59 360 0.0 2.0 0.00 0.00 0.00 84 1021.4
20260902220503 60 116 1.0 3.0 0.00 0.00 0.00 83 1021.3
20260902215503 61 97 1.0 3.0 0.00 0.00 0.00 81 1021.3
20260902214117 62 89 1.0 3.0 0.00 0.00 0.00 80 1021.1
20260902213503 61 87 1.0 2.0 0.00 0.00 0.00 80 1021.1
20260902211117 62 129 1.0 2.0 0.00 0.00 0.00 80 1020.9
20260902210504 62 120 0.0 2.0 0.00 0.00 0.00 80 1020.8
20260902205504 63 109 1.0 3.0 0.00 0.00 0.00 76 1020.8
20260902204118 63 357 1.0 3.0 0.00 0.00 0.00 77 1020.7
20260902203503 63 151 0.0 2.0 0.00 0.00 0.00 77 1020.5
20260902202504 63 175 0.0 3.0 0.00 0.00 0.00 77 1020.6
20260902201117 64 105 1.0 2.0 0.00 0.00 0.00 77 1020.6
20260902200504 63 332 1.0 2.0 0.00 0.00 0.00 76 1020.7
20260902195504 64 92 0.0 2.0 0.00 0.00 0.00 76 1020.6
20260902194117 64 328 1.0 3.0 0.00 0.00 0.00 74 1020.6
20260902193504 64 118 1.0 2.0 0.00 0.00 0.00 76 1020.6
20260902192503 64 139 1.0 2.0 0.00 0.00 0.00 75 1020.6
20260902191117 65 132 2.0 4.0 0.00 0.00 0.00 76 1020.4
20260902190503 65 43 1.0 2.0 0.00 0.00 0.00 72 1020.2
20260902185504 65 95 1.0 3.0 0.00 0.00 0.00 73 1020.0
20260902184117 65 111 2.0 5.0 0.00 0.00 0.00 73 1019.8
20260902183504 66 112 2.0 3.0 0.00 0.00 0.00 74 1019.7
20260902182504 66 125 2.0 3.0 0.00 0.00 0.00 72 1019.6
20260902181117 67 128 2.0 3.0 0.00 0.00 0.00 74 1019.2
20260902180504 68 113 1.0 2.0 0.00 0.00 0.00 69 1019.2
20260902175504 69 137 1.0 4.0 0.00 0.00 0.00 67 1018.8
20260902174117 70 126 1.0 4.0 0.00 0.00 0.00 64 1018.6
20260902173503 71 278 2.0 6.0 0.00 0.00 0.00 58 1018.2
20260902172504 73 287 1.0 6.0 0.00 0.00 0.00 53 1017.9
20260902171117 74 277 1.0 6.0 0.00 0.00 0.00 48 1017.8
20260902170504 75 326 3.0 9.0 0.00 0.00 0.00 47 1017.7
20260902165504 75 296 2.0 7.0 0.00 0.00 0.00 45 1017.7
20260902164117 76 13 4.0 10.0 0.00 0.00 0.00 45 1017.6
20260902163504 76 340 5.0 9.0 0.00 0.00 0.00 45 1017.5
20260902162504 76 321 5.0 13.0 0.00 0.00 0.00 46 1017.3
20260902161117 77 357 3.0 12.0 0.00 0.00 0.00 45 1017.2
20260902160503 77 338 4.0 8.0 0.00 0.00 0.00 44 1017.1
20260902155504 77 336 5.0 11.0 0.00 0.00 0.00 47 1017.1
20260902154117 77 330 5.0 11.0 0.00 0.00 0.00 44 1017.1
20260902153504 77 331 5.0 12.0 0.00 0.00 0.00 44 1017.2
20260902152503 77 335 5.0 12.0 0.00 0.00 0.00 46 1017.2
20260902151117 77 356 4.0 10.0 0.00 0.00 0.00 45 1017.4
20260902150504 77 319 8.0 14.0 0.00 0.00 0.00 46 1017.4
20260902145504 77 312 5.0 13.0 0.00 0.00 0.00 45 1017.4
20260902144117 78 296 4.0 11.0 0.00 0.00 0.00 44 1017.3
20260902143504 77 327 8.0 15.0 0.00 0.00 0.00 45 1017.4
20260902142504 78 317 6.0 16.0 0.00 0.00 0.00 44 1017.4
20260902141117 77 333 5.0 13.0 0.00 0.00 0.00 44 1017.5
20260902140504 77 335 3.0 14.0 0.00 0.00 0.00 46 1017.5
20260902135504 77 309 4.0 10.0 0.00 0.00 0.00 44 1017.4
20260902134116 77 329 5.0 9.0 0.00 0.00 0.00 47 1017.4
20260902133504 77 302 3.0 9.0 0.00 0.00 0.00 45 1017.5
20260902132504 78 83 1.0 10.0 0.00 0.00 0.00 45 1017.5
20260902131117 77 11 4.0 11.0 0.00 0.00 0.00 43 1017.7
20260902130504 77 311 6.0 13.0 0.00 0.00 0.00 43 1018.0
20260902125504 77 297 5.0 11.0 0.00 0.00 0.00 43 1017.9
20260902124116 77 333 2.0 13.0 0.00 0.00 0.00 42 1017.9
20260902123504 77 344 3.0 10.0 0.00 0.00 0.00 42 1018.0
20260902122504 78 313 4.0 11.0 0.00 0.00 0.00 39 1017.9
20260902121117 77 316 5.0 12.0 0.00 0.00 0.00 40 1018.1
20260902120503 78 359 2.0 9.0 0.00 0.00 0.00 42 1018.0
20260902115503 78 340 4.0 10.0 0.00 0.00 0.00 41 1018.1
20260902114117 77 323 4.0 11.0 0.00 0.00 0.00 42 1018.2
20260902113504 77 331 5.0 13.0 0.00 0.00 0.00 44 1018.3
20260902112504 76 326 6.0 16.0 0.00 0.00 0.00 44 1018.4
20260902111117 76 324 6.0 13.0 0.00 0.00 0.00 44 1018.5
20260902110504 76 314 4.0 11.0 0.00 0.00 0.00 48 1018.6
20260902105504 76 330 5.0 10.0 0.00 0.00 0.00 46 1018.8
20260902104117 76 302 4.0 10.0 0.00 0.00 0.00 48 1018.8
20260902103504 75 305 4.0 8.0 0.00 0.00 0.00 47 1018.9
20260902102503 75 288 4.0 7.0 0.00 0.00 0.00 44 1019.2
20260902101117 74 297 4.0 8.0 0.00 0.00 0.00 46 1019.3
20260902100504 74 283 2.0 5.0 0.00 0.00 0.00 48 1019.5
20260902095504 74 312 2.0 7.0 0.00 0.00 0.00 52 1019.6
20260902094117 73 323 4.0 6.0 0.00 0.00 0.00 54 1019.8
20260902093504 72 299 3.0 6.0 0.00 0.00 0.00 52 1020.0
20260902092503 72 344 2.0 6.0 0.00 0.00 0.00 53 1020.0
20260902091116 72 278 1.0 5.0 0.00 0.00 0.00 55 1020.1
20260902090504 72 343 1.0 5.0 0.00 0.00 0.00 58 1020.1
20260902084116 70 60 1.0 4.0 0.00 0.00 0.00 64 1020.4
20260902083504 69 77 2.0 4.0 0.00 0.00 0.00 62 1020.5
20260902082504 69 46 1.0 4.0 0.00 0.00 0.00 66 1020.6